Theta_e
328 324 320 316 304 302 296 298 299 303 303 304 305 302 301 303 301 298 317 325 328 334 341 346 349 351 352 353 352 351 352 352 350 350 349 348 347 345 343 343 343 342 341 339 336 334 332 328 327
320 319 317 310 298 294 293 297 301 302 303 304 304 303 302 301 309 314 316 326 328 332 341 344 346 351 352 352 351 351 351 351 351 350 349 348 346 343 340 340 340 340 338 336 332 330 326 325 324
320 318 309 303 297 293 293 299 300 302 304 303 302 304 303 304 309 313 321 327 327 329 340 342 345 350 352 352 351 350 350 351 351 350 348 346 342 339 338 338 337 337 336 332 329 326 325 323 322
317 312 307 297 295 297 297 300 302 302 304 305 303 301 305 310 310 315 324 327 325 329 339 341 345 350 351 350 350 350 350 351 351 349 347 344 342 337 336 336 335 335 332 329 327 325 324 322 321
314 309 299 296 297 296 298 303 302 302 301 303 304 301 302 308 313 316 322 325 325 328 334 341 344 347 349 349 350 350 350 350 350 348 345 343 341 337 334 334 333 331 329 327 326 324 322 320 319
307 304 296 294 295 298 299 303 302 302 303 302 299 300 302 309 310 312 319 322 325 326 333 341 339 342 345 347 348 348 349 349 348 345 344 341 338 336 333 332 331 329 327 326 324 323 321 318 316
304 302 296 296 296 298 302 303 299 300 301 301 305 298 304 306 310 312 313 320 324 326 329 335 340 340 338 342 344 345 346 346 344 341 340 339 338 336 332 331 329 327 326 326 323 321 319 317 314
307 303 296 295 296 296 301 301 301 300 300 304 303 298 301 304 310 311 315 318 321 324 327 330 337 339 340 339 336 338 340 338 337 336 335 333 333 332 330 327 329 326 326 325 323 320 317 314 311
310 298 294 297 297 297 302 299 301 303 299 301 304 302 305 310 310 310 313 314 318 323 325 328 330 335 337 337 334 331 332 332 332 331 329 327 328 326 322 323 326 327 326 324 321 319 315 311 307
302 297 298 301 300 298 300 299 300 298 299 300 301 305 307 308 307 308 309 311 314 317 322 326 328 330 332 337 334 330 330 329 328 327 325 327 326 323 322 319 323 326 324 323 320 317 313 308 298
303 297 301 301 302 302 300 299 301 298 297 300 300 302 303 305 305 306 306 308 311 316 320 324 326 328 329 330 330 332 331 328 327 326 323 326 326 319 315 314 315 312 314 310 311 307 301 298 297
298 302 303 304 303 302 299 302 299 300 301 304 304 304 304 303 303 304 305 306 307 310 317 321 323 325 327 328 327 328 329 328 325 325 324 322 324 315 313 312 312 310 307 306 303 299 298 297 297
298 301 303 303 302 301 303 300 299 299 303 305 305 305 303 303 303 305 305 307 308 308 311 318 321 321 324 326 325 325 324 324 324 323 323 326 320 313 312 311 311 311 307 305 301 298 297 296 296
300 300 300 301 301 301 299 299 299 300 302 302 303 302 302 302 303 302 304 305 306 308 309 313 319 320 321 322 323 323 323 323 323 323 324 323 318 312 310 309 310 309 306 303 298 297 296 295 295
300 295 298 299 299 298 299 295 296 301 302 301 301 301 302 303 304 303 304 305 305 307 308 310 313 318 318 320 321 321 321 322 321 321 321 320 316 313 309 308 307 307 304 301 297 296 296 295 295
295 294 289 297 298 297 296 290 299 301 300 300 301 300 301 302 303 303 304 303 304 303 306 309 311 314 317 317 319 320 319 319 318 319 318 318 317 313 308 306 305 305 301 298 295 294 293 293 293
293 287 290 294 300 296 294 291 298 301 299 299 300 299 300 301 302 302 303 303 304 304 305 306 309 309 313 315 316 318 318 317 316 316 316 315 314 313 307 304 304 303 298 295 295 293 293 292 291
289 288 291 291 296 297 293 293 297 299 298 298 297 299 299 299 301 303 304 304 304 304 304 304 306 308 310 310 312 313 314 315 315 314 313 313 312 311 307 303 302 300 295 294 293 292 292 292 291
292 291 290 294 298 295 294 294 295 299 299 298 298 298 297 300 302 302 302 302 301 302 301 302 302 303 305 306 306 307 308 310 311 312 313 311 310 309 306 302 300 298 294 293 293 292 291 291 290
293 290 290 294 297 294 292 292 296 298 298 297 296 296 298 297 299 299 299 299 299 298 299 300 300 302 302 303 306 306 307 308 309 310 310 311 309 307 306 302 299 297 293 293 292 292 290 290 290
292 290 291 291 293 293 290 289 293 298 298 298 298 298 297 296 296 296 296 296 297 296 297 298 298 298 300 301 302 302 303 302 302 302 304 307 308 306 304 302 299 297 294 294 293 292 291 288 289
289 294 292 291 287 284 291 281 290 295 295 295 296 294 294 294 295 295 294 293 294 295 296 297 297 297 298 298 298 297 297 297 299 300 301 303 305 305 304 302 300 297 295 292 293 293 293 289 289
291 292 290 289 286 285 287 282 288 293 291 291 292 293 293 293 293 292 293 293 293 294 293 294 294 294 296 295 295 295 294 296 296 297 297 299 300 302 302 301 299 297 295 294 292 292 292 292 290
293 290 290 289 286 280 287 286 286 288 290 290 292 292 293 293 293 293 293 293 291 292 292 292 292 292 292 293 294 292 291 292 292 293 294 295 297 297 299 299 298 297 296 293 293 292 293 293 293
289 286 281 280 278 279 289 284 288 293 295 292 292 292 293 293 292 291 291 291 290 290 290 291 291 290 291 291 292 292 292 291 291 291 292 292 292 294 295 296 295 295 296 296 293 292 292 292 292
289 289 282 275 277 281 286 281 288 293 294 294 293 292 291 290 289 288 289 289 290 290 289 290 290 289 289 289 290 291 292 291 291 291 291 291 292 292 294 294 294 294 295 295 295 293 291 290 291
289 286 291 283 277 276 282 287 292 294 292 292 291 290 288 287 287 287 287 287 287 287 287 288 288 288 288 288 289 289 289 289 290 289 290 290 291 292 292 291 291 292 293 292 293 292 290 289 290
290 291 283 283 275 270 279 279 283 289 288 289 288 287 287 287 286 285 285 285 285 286 286 286 287 286 286 286 286 287 288 288 287 288 288 288 289 289 289 289 289 290 290 290 290 291 289 288 289
287 285 286 287 284 278 276 279 289 287 287 285 286 287 286 285 285 283 284 284 285 284 284 284 285 285 285 284 284 285 285 285 284 284 284 285 286 288 288 289 288 288 288 288 287 288 288 288 288
290 287 287 282 280 282 281 281 292 288 287 287 286 286 285 285 285 283 283 283 283 283 284 283 283 284 284 284 283 284 285 284 282 282 282 283 283 285 286 287 287 287 287 287 286 287 289 288 288
Wind_Speed
7 9 4 3 1 3 3 5 3 4 3 4 2 3 4 5 4 0 2 7 3 11 14 13 14 15 14 14 14 12 11 12 13 13 12 11 11 9 5 6 7 8 8 7 6 6 5 5 6
7 7 2 4 3 2 3 2 6 7 4 3 3 4 4 1 6 8 6 6 6 9 14 13 12 14 14 15 15 13 12 11 12 14 13 13 13 10 4 2 4 5 5 5 5 5 5 5 6
7 6 2 3 3 4 4 5 5 3 5 2 5 1 3 2 6 4 5 9 6 8 14 12 14 15 15 15 16 14 12 11 10 12 12 11 10 8 4 2 3 4 6 5 6 6 6 6 5
4 2 4 2 4 4 4 6 7 6 5 4 3 7 3 5 2 5 6 9 7 8 10 13 16 15 15 15 15 14 13 12 12 12 12 11 10 7 5 5 5 6 5 5 6 6 6 6 6
3 4 3 5 5 2 2 4 2 4 3 4 5 3 2 4 9 8 6 7 7 8 6 13 17 13 13 14 13 13 12 11 13 13 13 13 10 6 7 6 5 5 5 6 6 6 6 6 6
3 2 3 4 6 4 3 4 3 4 1 4 1 5 2 7 8 7 6 7 6 7 7 9 10 11 11 13 12 13 13 14 12 12 11 10 8 8 7 6 6 6 6 7 7 6 6 6 6
2 2 6 7 8 2 5 5 4 5 7 2 5 4 1 6 6 7 5 6 6 7 7 8 8 8 9 12 11 12 11 14 14 12 9 9 10 11 9 8 8 8 8 7 7 6 6 6 6
3 1 6 4 5 5 5 3 0 4 6 3 2 5 2 3 8 4 2 3 6 5 8 6 9 8 6 6 10 10 11 10 10 8 8 10 10 11 9 8 8 10 10 9 8 7 6 6 5
2 3 5 8 5 3 7 3 2 2 3 6 5 4 4 9 7 4 3 3 3 4 6 7 7 8 8 7 8 8 9 11 9 9 10 10 5 6 7 8 10 11 11 11 10 9 8 7 5
2 3 5 6 7 7 9 7 8 4 8 11 7 10 9 9 7 7 7 7 8 7 7 7 7 7 8 8 8 8 7 5 5 6 7 5 7 6 7 7 10 9 10 11 11 11 10 9 4
6 5 7 10 7 8 7 8 6 9 8 12 10 12 3 6 8 9 8 8 9 10 7 9 8 8 7 6 5 5 5 4 4 7 6 6 5 3 3 3 3 4 6 3 4 4 1 4 3
8 8 9 8 4 3 6 9 9 9 17 10 11 9 6 9 8 7 9 9 7 7 11 10 10 8 7 4 4 5 5 4 4 5 7 5 5 5 5 4 5 5 3 4 4 3 5 2 1
7 9 10 8 6 6 8 10 11 12 16 13 14 10 8 8 8 8 9 7 9 8 7 10 11 8 7 6 3 3 4 4 5 5 6 6 5 5 5 5 5 5 5 5 5 4 3 2 2
8 8 10 9 15 10 8 10 5 9 8 10 8 9 9 9 10 7 8 8 8 8 8 7 10 10 9 7 8 5 5 5 5 6 7 8 5 5 5 4 5 5 5 4 5 5 5 5 4
6 7 10 15 10 6 5 9 11 15 8 9 9 9 8 10 8 10 9 9 8 6 8 8 6 8 8 7 6 4 5 5 5 5 8 8 7 7 7 5 5 5 5 7 6 5 4 4 3
5 6 5 2 5 3 8 7 11 7 9 14 14 11 10 9 7 7 10 8 6 3 2 8 7 7 8 6 5 4 3 4 3 4 4 7 8 7 6 5 5 5 5 5 5 5 4 5 5
8 6 8 8 5 7 6 6 9 11 10 16 14 8 8 7 10 13 14 11 11 11 10 5 6 6 6 5 3 4 4 3 3 3 4 6 7 7 6 5 5 6 5 5 6 4 5 4 4
5 7 7 8 7 6 6 10 7 12 9 16 9 8 7 9 14 17 21 21 21 18 15 11 7 5 5 3 2 1 3 2 2 3 2 5 4 7 5 4 5 6 5 5 5 6 4 4 5
8 10 12 10 9 12 11 10 8 16 17 12 9 6 5 16 17 19 19 19 18 19 18 18 13 7 4 3 2 2 1 1 1 2 3 5 5 6 6 4 5 5 5 6 7 5 8 4 5
7 11 13 9 6 6 10 12 15 18 15 7 5 5 8 15 17 18 17 16 16 14 14 17 16 15 9 3 1 1 1 2 2 2 4 4 5 7 7 6 5 6 4 6 7 6 3 3 7
10 9 11 13 7 6 8 9 10 10 7 8 7 13 17 18 16 15 16 15 13 15 14 14 14 14 13 11 5 4 4 4 4 3 2 3 5 5 7 7 6 6 6 8 7 8 9 6 6
12 5 3 4 3 3 7 6 5 14 1 16 15 16 14 15 14 12 12 14 15 13 12 14 15 16 14 14 9 7 4 3 2 2 3 4 5 6 6 7 7 6 5 6 8 8 9 5 9
2 2 3 4 5 5 7 4 7 8 12 9 11 14 13 12 12 12 12 12 11 11 10 10 12 13 13 12 12 9 9 6 5 4 7 6 4 5 6 6 7 7 5 7 8 8 9 10 8
3 2 6 6 3 2 12 8 5 3 10 8 10 11 11 10 9 9 8 8 8 8 9 9 11 12 11 10 8 8 8 8 6 6 5 5 4 4 6 6 6 6 6 7 8 9 13 13 12
2 1 4 3 2 6 11 6 6 5 2 13 14 12 10 9 7 7 7 6 6 9 9 8 10 11 12 12 11 9 9 8 8 7 5 7 4 4 6 5 6 5 7 8 7 8 11 13 13
6 2 4 5 3 8 7 5 6 6 15 16 14 11 10 9 7 7 8 7 7 7 6 8 8 6 8 9 9 9 9 7 6 7 7 7 6 6 6 6 6 7 7 8 8 7 7 9 12
3 3 2 2 1 2 6 6 7 6 14 12 12 10 8 7 6 7 7 6 6 5 7 6 7 7 5 4 5 6 5 6 7 8 6 7 8 9 11 8 8 7 8 8 9 8 8 8 10
2 3 3 1 3 6 7 3 5 7 11 9 8 7 6 6 5 5 5 5 4 5 5 7 6 5 5 6 6 6 6 7 7 6 7 7 8 11 11 11 8 8 8 7 8 9 8 9 8
0 2 4 3 4 8 11 7 8 11 10 8 5 4 5 6 6 6 6 6 6 6 6 6 7 7 6 6 6 6 6 4 5 5 6 6 7 9 11 11 11 8 8 8 7 8 8 11 11
13 13 11 5 5 5 5 10 9 11 12 9 4 3 2 1 2 4 5 6 7 7 7 7 6 5 5 4 5 6 6 6 5 6 7 7 7 7 8 10 10 11 9 7 8 11 12 13 14
Wind_Direction
282 243 280 313 265 204 279 79 11 357 66 30 358 360 320 279 313 339 168 167 237 136 149 160 162 162 164 161 154 154 161 163 161 159 158 145 118 107 98 96 78 93 91 86 88 87 72 57 49
309 313 257 269 244 242 97 75 80 54 30 348 269 264 244 46 75 123 144 147 229 151 146 166 165 165 164 157 158 162 168 170 172 167 163 139 117 107 77 68 113 110 111 112 109 96 85 67 56
274 275 278 237 271 23 355 79 60 88 137 341 314 125 299 26 78 105 110 136 211 160 147 168 167 166 167 164 165 167 170 177 178 170 167 143 136 110 140 136 138 150 140 132 125 109 101 85 75
305 218 263 270 311 51 2 351 29 323 102 107 347 290 137 76 75 80 130 145 183 163 152 154 169 172 167 169 169 167 178 187 187 173 156 154 133 165 174 170 167 150 146 139 124 117 106 94 86
236 266 270 228 247 107 53 37 45 305 320 159 157 272 243 113 115 127 149 155 180 158 151 155 166 179 180 176 173 176 186 189 184 168 155 136 131 149 190 185 175 161 158 147 124 121 111 98 88
279 204 279 272 359 101 126 70 333 247 146 90 244 252 250 135 139 164 157 166 188 162 147 147 167 173 186 182 183 186 190 189 181 156 174 112 162 171 188 187 187 175 172 152 143 134 122 110 99
252 305 267 318 299 311 141 100 260 355 320 270 126 298 329 164 115 124 169 167 188 172 160 149 165 186 193 182 186 188 188 178 170 173 127 143 158 162 196 194 187 183 174 156 147 140 130 118 102
316 300 273 257 267 325 110 135 247 333 300 200 53 247 12 65 80 98 145 220 176 207 165 179 163 174 185 184 186 188 188 184 184 148 148 158 154 157 179 180 191 187 173 165 157 149 136 116 100
298 292 276 287 300 256 127 180 120 239 268 286 216 234 169 141 126 145 156 260 216 211 192 178 187 175 183 182 182 183 179 175 169 153 167 149 153 163 173 181 190 193 174 170 167 160 145 126 107
227 239 264 318 343 340 337 350 338 315 310 281 285 244 204 149 165 185 204 210 208 209 220 186 193 191 180 190 170 173 180 184 175 163 157 169 196 178 179 182 189 177 165 173 175 168 159 161 158
206 230 291 316 358 17 331 320 295 289 275 253 276 315 330 232 199 203 218 227 211 201 185 196 194 196 190 195 167 181 180 176 178 163 160 181 205 199 160 130 147 130 139 146 163 150 181 235 186
248 256 265 274 323 14 302 324 299 281 260 285 280 284 292 286 282 238 222 213 230 222 194 184 192 189 195 184 187 162 178 170 177 170 162 170 200 169 160 144 163 154 159 164 155 171 220 183 44
292 254 268 297 313 280 275 269 269 271 272 279 278 271 275 285 251 239 250 230 212 225 222 185 179 182 188 188 189 182 173 173 169 170 193 189 180 170 157 166 166 166 162 168 165 177 177 172 172
302 337 297 275 267 260 257 283 295 275 283 285 297 286 279 252 237 242 226 226 209 206 224 200 177 182 173 184 187 179 187 180 180 170 189 192 159 158 167 189 179 171 161 166 160 174 173 178 161
334 304 280 264 256 213 130 293 222 254 291 294 287 288 303 310 296 234 237 217 213 198 197 205 188 168 176 185 187 191 185 180 172 177 175 170 166 179 174 175 177 175 167 159 161 173 166 162 164
266 258 295 254 109 125 113 272 295 9 358 309 291 301 308 298 313 3 21 19 7 22 162 185 156 162 170 176 183 183 205 193 192 185 178 173 176 173 174 175 187 175 160 158 162 167 168 166 170
227 253 257 291 204 129 175 257 288 288 275 272 288 298 297 330 40 36 26 19 23 28 15 37 137 150 151 167 170 186 197 192 191 183 181 176 176 188 171 179 182 171 162 166 169 175 160 169 174
265 271 299 305 317 313 237 244 263 297 274 270 298 287 302 69 61 52 42 36 34 24 19 20 35 88 122 107 140 154 166 209 199 215 197 185 184 187 183 183 183 171 162 170 172 170 188 168 167
275 279 282 282 293 280 279 294 295 268 282 285 294 262 95 86 67 61 48 38 34 28 29 20 18 21 68 69 73 19 313 285 238 219 214 199 194 186 192 189 188 182 179 185 183 163 174 178 153
280 288 286 274 278 324 305 295 282 282 274 251 77 58 97 78 62 51 48 42 40 33 26 34 23 20 16 27 37 77 87 234 192 197 215 229 208 187 182 189 200 191 174 195 193 180 159 175 171
263 262 278 293 319 294 278 272 260 274 265 91 57 74 73 71 66 53 45 37 32 36 29 42 35 25 14 10 16 16 5 9 2 338 305 222 222 206 191 198 198 193 182 198 195 195 178 186 205
273 270 308 324 2 261 41 281 307 281 77 81 80 68 62 67 65 58 50 45 36 31 28 34 33 26 18 14 19 23 8 341 306 267 275 238 219 216 205 200 203 208 197 203 206 197 197 155 193
220 45 316 270 262 313 250 252 247 220 95 80 77 75 71 64 63 54 47 47 36 27 24 31 37 33 20 24 22 21 9 349 339 343 349 332 280 216 227 224 204 208 198 211 200 208 208 208 192
56 304 260 241 212 255 240 193 308 67 137 122 105 88 81 74 64 60 59 48 37 25 17 23 33 30 25 17 21 31 15 342 350 340 342 336 325 272 230 225 227 223 225 215 218 216 213 211 216
117 322 305 327 177 205 30 3 227 106 99 138 117 100 86 73 68 74 64 54 54 31 22 18 23 20 15 8 2 14 15 359 346 337 341 339 330 330 303 243 225 226 229 240 225 221 220 220 221
184 224 182 241 249 290 4 252 264 75 89 92 95 92 76 62 56 50 49 40 48 51 36 42 31 45 24 359 342 3 6 357 342 353 348 339 332 315 305 305 271 237 234 241 241 233 225 225 234
85 177 353 291 309 4 215 247 280 111 89 87 86 75 68 65 60 51 48 43 41 43 41 36 40 34 38 352 342 13 353 351 350 351 344 340 331 328 319 311 300 273 254 239 240 241 236 229 223
137 350 310 256 239 233 264 259 234 47 110 90 68 55 48 45 45 52 54 47 36 33 32 30 35 22 26 10 7 3 350 352 339 336 337 341 333 327 322 312 295 277 265 252 244 251 241 232 231
3 252 203 237 232 258 273 265 111 106 87 84 85 86 31 8 11 19 20 18 33 29 20 12 10 6 8 7 353 340 325 331 324 326 329 333 324 322 325 317 305 291 269 255 248 248 248 243 241
287 273 270 250 247 219 234 261 83 106 117 114 107 121 93 258 32 42 4 360 5 11 5 352 354 355 348 347 334 316 314 315 328 324 320 322 314 309 307 309 306 295 287 266 247 251 253 251 247